Regional Weather Roundup
Issued by NWS

Home | Current Version | Previous Version | Graphics & Text | Print | Product List | Glossary On
Versions: 1 2 3 4 5 6 7 8 9 10 11 12 13 14 15 16 17 18 19 20 21 22 23 24 25 26 27 28 29 30 31 32 33 34 35 36 37 38 39 40 41 42 43 44 45 46 47 48 49 50
000
ASUS43 KMKX 250900
RWRWI

WISCONSIN REGIONAL WEATHER ROUNDUP
NATIONAL WEATHER SERVICE MILWAUKEE/SULLIVAN WI
400 AM CDT SAT OCT 25 2014

NOTE: "FAIR" INDICATES FEW OR NO CLOUDS BELOW 12,000 FEET WITH NO
SIGNIFICANT WEATHER AND/OR OBSTRUCTIONS TO VISIBILITY.

WIZ001-002-006>008-014>016-023>028-251000-
NORTHWEST WISCONSIN

CITY           SKY/WX    TMP DP  RH WIND       PRES   REMARKS
SUPERIOR ARPT  CLEAR     49  36  61 SW8       29.83R
ASHLAND        CLEAR     51  38  60 SW9       29.81S
HAYWARD        CLEAR     53  37  54 VRB5      29.86S
SIREN          CLEAR     51  37  58 W8        29.90S
CUMBERLAND     CLEAR     50  36  57 W8        29.89S
RICE LAKE      CLEAR     48  41  75 W5        29.90S
CHETEK         CLEAR     52  42  68 W6        29.89S
LADYSMITH      CLEAR     51  45  82 W10       29.88R
EAU CLAIRE     CLEAR     47  43  86 SW5       29.89S
MENOMONIE      CLEAR     53  42  66 W9        29.91R
NEW RICHMOND   CLEAR     52  39  61 NW8       29.93S
OSCEOLA        CLEAR     55  39  55 W9        29.95F
$$

WIZ003>005-009-010-017-018-251000-
NORTH CENTRAL WISCONSIN

CITY           SKY/WX    TMP DP  RH WIND       PRES   REMARKS
MANITOWISH WTR CLEAR     49  46  91 W7        29.79F
ARBOR VITAE    CLEAR     52  47  84 NW6       29.80F
WOODRUFF       CLEAR     52  47  84 NW6       29.80F
RHINELANDER    CLEAR     49  46  90 W8        29.81F
EAGLE RIVER    CLEAR     50  48  93 W9        29.78F
LAND O LAKES   CLEAR     51  47  86 W7        29.78F
PHILLIPS       CLEAR     50  46  85 W5        29.83S
TOMAHAWK       CLEAR     50  47  91 W6        29.83S
MEDFORD        CLEAR     50  48  92 W9        29.85S
MERRILL        CLEAR     52  51  97 W9        29.83S FOG
$$

WIZ029-030-035-036-043>047-251000-
CENTRAL WISCONSIN

CITY           SKY/WX    TMP DP  RH WIND       PRES   REMARKS
WAUSAU         PTCLDY    53  51  93 W10       29.82S
MOSINEE        MOCLDY    52  52 100 W10       29.86S FOG
MARSHFIELD     CLEAR     52  50  93 W8        29.86S FOG
STEVENS POINT  MOCLDY    52  51  95 W7        29.85S FOG
WAUPACA        PTCLDY    57  55  95 W8        29.84S FOG
WAUTOMA        NOT AVBL
WISC RAPIDS    CLEAR     54  52  93 W7        29.87F FOG
CAMP DOUGLAS   NOT AVBL
$$

WIZ011>013-019>022-031-037>040-048>050-251000-
NORTHEAST WISCONSIN

CITY           SKY/WX    TMP DP  RH WIND       PRES   REMARKS
ANTIGO         PTCLDY    52  51  97 W12       29.81F FOG
SHAWANO        MOCLDY    57  54  88 W7        29.81S FOG
OCONTO         PTCLDY    54  54 100 W8        29.77S
STURGEON BAY   CLEAR     54  50  87 SW12      29.78S
GREEN BAY      PTCLDY    56  54  93 W14       29.80S FOG
MANITOWOC      NOT AVBL
APPLETON       CLOUDY    54  52  94 W14       29.82F FOG
CLINTONVILLE   MOCLDY    55  54  94 W8        29.82S
OSHKOSH        CLOUDY    56  54  93 W7        29.83S FOG
$$

WIZ032>034-041-042-053>061-251000-
SOUTHWEST WISCONSIN

CITY           SKY/WX    TMP DP  RH WIND       PRES   REMARKS
LA CROSSE      CLEAR     53  52  96 CALM      29.91R FOG
SPARTA         CLEAR     54  53  97 SW3       29.90F FOG
VIROQUA        PTCLDY    54  54 100 W6        29.91F
BOSCOBEL       FOG       55  53  93 SW6       29.92S VSB 1/4
PRAIRIE DU CHI CLEAR     56  55  95 CALM      29.92S FOG
PLATTEVILLE    MOCLDY    56  55  97 CALM      29.92F
$$

WIZ056-057-062-063-064-067-068-251000-
SOUTH CENTRAL WISCONSIN

CITY           SKY/WX    TMP DP  RH WIND       PRES   REMARKS
REEDSBURG      CLEAR     54  53  97 SW3       29.89S FOG
BARABOO/DELLS  CLEAR     54  52  92 W6        29.88S FOG
LONE ROCK      MOCLDY    60  54  80 W7        29.91R HAZE
MINERAL POINT  CLOUDY    57  55  94 W6        29.92R FOG
MADISON        CLEAR     57  54  89 W6        29.88S
MIDDLETON      CLEAR     57  56  96 W10       29.89S
WATERTOWN      CLOUDY    55  55 100 SW5       29.87S FOG
MONROE         MOCLDY    55  55 100 W15       29.90F FOG
JANESVILLE     CLOUDY    59  55  88 W6        29.89F FOG
$$

WIZ051-052-058>065-066-070>072-251000-
SOUTHEAST WISCONSIN

CITY           SKY/WX    TMP DP  RH WIND       PRES   REMARKS
MILWAUKEE      MOCLDY    56  52  86 W10       29.87S
WAUKESHA       CLOUDY    54  52  94 W12       29.88S FOG
MILWAUKEE/TIMM CLOUDY    54  52  94 W12G17    29.86F
RACINE         MOCLDY    56  52  86 W10G18    29.88F
BURLINGTON     CLOUDY    54  53  95 W8        29.88S FOG
KENOSHA        MOCLDY    56  54  93 W8        29.88S FOG
FOND DU LAC    MOCLDY    56  53  90 W12       29.84F
SHEBOYGAN      CLOUDY    56  53  90 W15G22    29.82S
WEST BEND      CLOUDY    54  52  94 W12       29.85S FOG
JUNEAU         CLOUDY    55  54  94 W9        29.87F FOG
$$

LSZ147-162-251000-
LAKE SUPERIOR

STATION/POSITION TIME  TEMP    WIND        PRES    WAVE
                       AIR SEA DIR/SP/G            HT/PER
                 (UTC) (F)     (DEG/KT/KT) (MB)    (FT/S)
W MID LAKE BUOY  0750   52 46  250/ 14/ 17 1005.9R   4/ 5
DEVILS ISLAND    0800   56     260/ 20/ 23 1007.7R
PORT WING        0800   58     240/ 12/ 16 1009.5R
SAXON HARBOR     0800   59     220/  6/ 11 1009.1
$$

LMZ867-665-643>646-251000-
LAKE MICHIGAN

STATION/POSITION TIME  TEMP    WIND        PRES    WAVE
                       AIR SEA DIR/SP/G            HT/PER
                 (UTC) (F)     (DEG/KT/KT) (MB)    (FT/S)
CHAMBERS ISLAND  0800   54     190/  6/ 12 1007.8F
N MID LAKE BUOY  0750   53 51  220/ 16/ 19 1007.0F   5/ 6
NORTHPORT PIER   0800   55     240/  6/ 12 1007.5F
KEWAUNEE LAKESHO 0800   55     260/  9/ 11 1007.9F
SHEBOYGAN LAKESH 0800   55 52  250/  6/  7 1010.5S
PORT WASHINGTON  0840   56     280/  6/ 10 1011.2F
ATWATER BUOY     0800   56     260/  4/  6 1012.3R
MILWAUKEE LAKESH 0800   57     260/  9/ 11   N/A
S MID LAKE BUOY  0750   56 54  220/ 12/ 14 1011.3R   1/ 3
KENOSHA   LAKESH 0800   56     260/  7/ 11 1011.9R
$$

TC  - TEMPERATURE IN CELSIUS
VSB - VISIBILITY IN STATUTE MILES
WCI - WIND CHILL INDEX
HX  - HEAT INDEX




USA.gov is the U.S. government's official web portal to all federal, state and local government web resources and services.